Home   Weather   Kingston upon Hull   Past weeks

Flag for United Kingdom Past Weather in Kingston upon Hull, England, United Kingdom — Yesterday and Last 2 Weeks

Now
52 °F

Scattered clouds.


Feels Like: 47 °F
Forecast: 35 / 48 °F
Wind: 14 mph from West

Location: Humberside

Current Time: Apr 24, 2017 at 8:50:56 am

Latest Report: Apr 24, 2017 at 8:20 am


Visibility: N/A

Pressure: 29.95 "Hg

Humidity: 77%

Dew Point: 45 °F

Location of Kingston upon HullLocation

Past Weather in Kingston upon Hull — Graph

°F

Kingston upon Hull Temperature Yesterday

Maximum temperature yesterday: 61 °F (at 4:50 pm)
Minimum temperature yesterday: 39 °F (at 5:50 am)
Average temperature yesterday: 50 °F

High & Low Weather Summary for the Past Weeks

 TemperatureHumidityPressure
High75 °F (Apr 9, 3:50 pm)100% (Apr 16, 9:50 pm)30.66 "Hg (Apr 16, 9:50 pm)
Low32 °F (Apr 19, 5:20 am)36% (Apr 9, 4:50 pm)29.86 "Hg (Apr 14, 6:20 pm)
Average49 °F73%30.22 "Hg
* Reported Apr 9 7:20 am — Apr 24 7:20 am, Kingston upon Hull, Weather by CustomWeather, © 2017

Note: Actual official high and low records may vary slightly from our data, if they occured in-between our weather recording intervals... More about our weather records

Advertising

Kingston upon Hull Weather History for the Previous 24 Hours

Scroll right to see more
 ConditionsComfort  
Time TempWeatherWind HumidityBarometerVisibility
7:20 am
Mon, Apr 24
50 °FScattered clouds.10 mph88%29.95 "HgN/A
6:50 am50 °FScattered clouds.12 mph88%29.95 "HgN/A
6:20 am48 °FScattered clouds.12 mph87%29.98 "HgN/A
5:50 am48 °FPartly sunny.13 mph87%29.98 "HgN/A
5:20 am48 °FPartly cloudy.8 mph87%29.98 "HgN/A
4:50 am46 °FPassing clouds.12 mph93%30.01 "HgN/A
4:20 am46 °FPassing clouds.8 mph87%30.01 "HgN/A
3:50 am46 °FPassing clouds.9 mph87%30.01 "HgN/A
3:20 am46 °FCool.9 mph87%30.01 "HgN/A
2:50 am48 °FPassing clouds.9 mph82%30.04 "HgN/A
2:20 am46 °FPartly cloudy.13 mph82%30.04 "HgN/A
1:50 am46 °FPartly cloudy.10 mph82%30.07 "HgN/A
1:20 am46 °FMostly cloudy.7 mph76%30.07 "HgN/A
12:50 am48 °FOvercast.9 mph71%30.09 "HgN/A
12:20 am46 °FPassing clouds.9 mph76%30.09 "HgN/A
11:50 pm
Sun, Apr 23
46 °FPassing clouds.8 mph71%30.09 "HgN/A
11:20 pm46 °FCool.8 mph71%30.09 "HgN/A
10:50 pm48 °FCool.9 mph62%30.12 "HgN/A
10:20 pm50 °FCool.12 mph58%30.12 "HgN/A
9:50 pm50 °FCool.8 mph58%30.12 "HgN/A
9:20 pm52 °FClear.8 mph50%30.12 "Hg10 mi
8:50 pm52 °FClear.7 mph50%30.12 "Hg10 mi
8:20 pm54 °FClear.8 mph51%30.12 "Hg10 mi
7:50 pm55 °FPassing clouds.10 mph47%30.12 "HgN/A
7:20 pm57 °FPassing clouds.10 mph48%30.12 "HgN/A
6:50 pm59 °FPassing clouds.12 mph45%30.15 "HgN/A
6:20 pm61 °FScattered clouds.13 mph42%30.15 "HgN/A
5:50 pm61 °FScattered clouds.12 mph39%30.15 "HgN/A
5:20 pm59 °FScattered clouds.10 mph45%30.18 "HgN/A
4:50 pm61 °FScattered clouds.10 mph42%30.18 "HgN/A
4:20 pm59 °FScattered clouds.10 mph45%30.21 "HgN/A
3:50 pm57 °FScattered clouds.7 mph44%30.21 "HgN/A
3:20 pm59 °FScattered clouds.12 mph45%30.21 "HgN/A
2:50 pm57 °FScattered clouds.7 mph48%30.24 "HgN/A
2:20 pm57 °FScattered clouds.8 mph48%30.24 "HgN/A
1:50 pm57 °FScattered clouds.8 mph48%30.24 "HgN/A
1:20 pm55 °FScattered clouds.6 mph51%30.27 "HgN/A
12:50 pm54 °FScattered clouds.6 mph54%30.27 "HgN/A
12:20 pm54 °FScattered clouds.6 mph58%30.27 "HgN/A
11:50 am54 °FScattered clouds.8 mph58%30.30 "HgN/A
11:20 am54 °FScattered clouds.9 mph58%30.30 "HgN/A
10:50 am54 °FPassing clouds.9 mph58%30.30 "HgN/A
10:20 am52 °FPassing clouds.8 mph62%30.30 "HgN/A
9:50 am50 °FPassing clouds.9 mph67%30.30 "HgN/A
9:20 am50 °FPassing clouds.9 mph67%30.33 "HgN/A
8:50 am48 °FPassing clouds.12 mph66%30.33 "HgN/A
8:20 am46 °FSunny.12 mph71%30.33 "Hg10 mi
Weather by CustomWeather, © 2017

See weather overviewHow to use our weather pages